Regional Weather Roundup
Issued by NWS Green Bay, WI

Home | Current Version | Previous Version | Text Only | Print | Product List | Glossary On
Versions: 1 2 3 4 5 6 7 8 9 10 11 12 13 14 15 16 17 18 19 20 21 22 23 24 25 26 27 28 29 30 31 32 33 34 35 36 37 38 39 40 41 42 43 44 45 46 47 48 49 50
000
ASUS43 KGRB 250610
RWRGRB

NORTH-CENTRAL AND NORTHEAST WISCONSIN REGIONAL WEATHER ROUNDUP
NATIONAL WEATHER SERVICE GREEN BAY WI
100 AM CDT FRI APR 25 2014

WIZ005-009-010>012-018-019-250700-
NORTH CENTRAL WISCONSIN

CITY           SKY/WX    TMP DP  RH WIND       PRES   REMARKS
IRONWOOD       CLOUDY    36  32  87 SE9G18    29.63F
MANITOWISH WTR DRIZZLE   34  34 100 SE7       29.67F
ARBOR VITAE    DRIZZLE   37  35  93 SE6       29.68F
EAGLE RIVER    LGT RAIN  34  34 100 S5        29.69S
LAND O LAKES   MIX PCPN  34  33  97 SE3       29.70S
RHINELANDER    CLOUDY    36  34  92 SE5       29.69F FOG
PHILLIPS       DRIZZLE   37  37  97 S7        29.66F
ANTIGO         DRIZZLE   36  35  97 SE10      29.69R
TOMAHAWK       CLOUDY    37  35  94 CALM      29.70R FOG
MERRILL        RAIN      37  37 100 CALM      29.71R
$$

WIZ013-073-250700-
NORTHEAST WISCONSIN

CITY           SKY/WX    TMP DP  RH WIND       PRES   REMARKS
IRON MOUNTAIN  LGT RAIN  35  33  92 E8G16     29.72F
MARINETTE      CLOUDY    39  34  81 SE10      29.74S
OCONTO         CLOUDY    39  35  87 E7        29.72F
$$

WIZ017-030-035>037-045-250700-
CENTRAL WISCONSIN

CITY           SKY/WX    TMP DP  RH WIND       PRES   REMARKS
MEDFORD        DRIZZLE   38  38  99 S3        29.68S
WAUSAU         CLOUDY    38  38 100 S3        29.69R FOG
MOSINEE        CLOUDY    37  37 100 CALM      29.71R FOG
MARSHFIELD     CLOUDY    42  40  92 NW6       29.69R FOG
WISC RAPIDS    CLOUDY    41  40  96 CALM      29.71R FOG
STEVENS POINT  CLOUDY    38  37  99 CALM      29.70R FOG
WAUPACA        RAIN      43  39  87 CALM      29.70R
SHAWANO        CLOUDY    42  37  82 SE5       29.71R
CLINTONVILLE   DRIZZLE   41  37  87 SE7       29.69S
$$

WIZ038-039-048-051-250700-
FOX VALLEY

CITY           SKY/WX    TMP DP  RH WIND       PRES   REMARKS
NWS GREEN BAY  CLOUDY    43  35  73 SE12      29.71F
APPLETON       NOT AVBL
OSHKOSH        LGT RAIN  44  37  76 SE7       29.68S
FOND DU LAC    CLOUDY    44  37  76 S7        29.70R
$$

WIZ022-050-052-250700-
EAST CENTRAL WISCONSIN

CITY           SKY/WX    TMP DP  RH WIND       PRES   REMARKS
STURGEON BAY   CLOUDY    39  34  81 SE13G20   29.73F
MANITOWOC      LGT RAIN  40  34  79 SE12      29.71F
SHEBOYGAN      LGT RAIN  40  33  76 SE12      29.70F
$$

LMZ563-521-522-541>543-250700-
LAKESHORE

STATION/POSITION TIME  TEMP    WIND        PRES    VSBY  WAVE
                       AIR SEA DIR/SP/G                  HT/PER
                 (UTC) (F)     (DEG/KT/KT) (MB)    (MI)  (FT/S)
SHEBOYGAN LKSHOR 0600   40     130/ 16/ 19 1006.1F
KEWAUNEE LKSHORE 0600   38      90/ 11/ 13 1007.3F
NORTHPORT PIER   0600   39     120/ 14/ 19 1008.5S
SISTER BAY LKSHO 0600   39     140/ 12/ 16   N/A
MENOMINEE LKSHOR 0600   37      80/ 10/ 11 1008.0R
$$



USA.gov is the U.S. government's official web portal to all federal, state and local government web resources and services.